Change the Weather History Date:

Friday, January 3, 2014

  Actual Average Record
Temperature  
Mean Temperature 42 °F -  
Max Temperature 55 °F 61 °F 79 °F (1989)
Min Temperature 28 °F 44 °F 22 °F (1979)
Degree Days  
Heating Degree Days 24    
Moisture  
Dew Point 32 °F    
Average Humidity 70    
Maximum Humidity 89    
Minimum Humidity 45    
Precipitation  
Precipitation 0.00 in - - ()
Sea Level Pressure  
Sea Level Pressure 30.37 in    
Wind  
Wind Speed 10 mph (ENE)    
Max Wind Speed 13 mph    
Max Gust Speed 18 mph    
Visibility 10 miles    
Events      
Averages and records for this station are not official NWS values.
T = Trace of Precipitation, MM = Missing Value Source: NWS Daily Summary

Daily Weather History Graph

Daily Weather History Graph

Search for Another Location

Airport or City:

Trip Planner

Search our weather history database for the weather conditions in past years. The results will help you decide how hot, cold, wet, or windy it might be!

Date:

Astronomy

Jan. 03, 2014 Rise Set
Actual Time 7:18 AM CST 5:40 PM CST
Civil Twilight 6:52 AM CST 6:06 PM CST
Nautical Twilight 6:23 AM CST 6:35 PM CST
Astronomical Twilight 5:54 AM CST 7:04 PM CST
Moon 8:59 AM CST (1/3) 8:35 PM CST (1/3)
Length of Visible Light 11h 13m
Length of Day
10h 22m
Waxing Crescent, 8% of the Moon is Illuminated
Jan 3
Waxing Crescent
Jan 7
First Quarter
Jan 15
Full
Jan 23
Last Quarter
Jan 30
New

Hourly Weather History & Observations

Time (CST) Temp. Windchill Dew Point Humidity Pressure Visibility Wind Dir Wind Speed Gust Speed Precip Events Conditions
12:53 AM 35.1 °F 27.4 °F 27.0 °F 72% 30.44 in 10.0 mi North 10.4 mph - N/A   Clear
1:53 AM 33.1 °F 25.5 °F 26.1 °F 75% 30.44 in 10.0 mi North 9.2 mph - N/A   Clear
2:53 AM 33.1 °F 24.9 °F 26.1 °F 75% 30.45 in 10.0 mi North 10.4 mph - N/A   Clear
3:53 AM 32.0 °F 23.6 °F 26.1 °F 79% 30.43 in 10.0 mi NNE 10.4 mph - N/A   Clear
4:53 AM 30.9 °F 23.5 °F 25.0 °F 79% 30.43 in 10.0 mi NNE 8.1 mph - N/A   Clear
5:53 AM 28.9 °F 21.1 °F 25.0 °F 85% 30.43 in 10.0 mi NNE 8.1 mph - N/A   Clear
6:53 AM 28.0 °F 20.8 °F 24.1 °F 85% 30.44 in 10.0 mi NNE 6.9 mph - N/A   Clear
7:53 AM 28.9 °F 21.1 °F 25.0 °F 85% 30.45 in 10.0 mi North 8.1 mph - N/A   Clear
8:53 AM 37.9 °F 31.5 °F 28.0 °F 68% 30.47 in 10.0 mi ENE 9.2 mph - N/A   Clear
9:53 AM 44.1 °F 37.7 °F 28.0 °F 53% 30.48 in 10.0 mi East 12.7 mph - 0.00 in   Clear
10:53 AM 48.9 °F - 32.0 °F 52% 30.47 in 10.0 mi East 8.1 mph - N/A   Clear
11:53 AM 51.1 °F - 32.0 °F 48% 30.43 in 10.0 mi East 9.2 mph 16.1 mph N/A   Clear
12:53 PM 54.0 °F - 35.1 °F 49% 30.39 in 10.0 mi SE 10.4 mph - N/A   Clear
1:53 PM 54.0 °F - 34.0 °F 47% 30.35 in 10.0 mi ESE 9.2 mph - N/A   Clear
2:53 PM 55.0 °F - 34.0 °F 45% 30.32 in 10.0 mi SE 8.1 mph 18.4 mph N/A   Clear
3:53 PM 53.1 °F - 37.9 °F 57% 30.32 in 10.0 mi SE 12.7 mph - N/A   Clear
4:53 PM 51.1 °F - 39.9 °F 66% 30.30 in 10.0 mi ESE 12.7 mph - N/A   Clear
5:53 PM 46.9 °F - 39.9 °F 77% 30.28 in 10.0 mi East 9.2 mph - N/A   Clear
6:53 PM 45.0 °F 40.1 °F 39.9 °F 82% 30.27 in 10.0 mi East 9.2 mph - N/A   Clear
7:53 PM 44.1 °F 39.0 °F 39.9 °F 85% 30.27 in 10.0 mi East 9.2 mph - N/A   Clear
8:53 PM 45.0 °F 40.1 °F 39.9 °F 82% 30.25 in 10.0 mi East 9.2 mph - N/A   Clear
9:53 PM 45.0 °F 40.1 °F 41.0 °F 86% 30.23 in 10.0 mi East 9.2 mph - N/A   Clear
10:53 PM 43.0 °F 37.7 °F 39.9 °F 89% 30.22 in 10.0 mi East 9.2 mph - N/A   Clear